Duchifat 3
1 44854U 19089C   25088.35356783  .00065169  00000-0  16320-2 0  9996
2 44854  36.9454  92.0703 0005007 283.0234  76.9961 15.38995175291781
TO-108
1 44881U 19093C   25088.82330049  .00002328  00000-0  27615-3 0  9998
2 44881  97.7960 165.9720 0015269 106.2551 254.0345 14.85370004285424
FloripaSat 1
1 44885U 19093G   25088.80728948  .00009267  00000-0  80253-3 0  9995
2 44885  97.8175 176.3201 0011894  87.9481 272.3102 14.97299807286007
RS-44
1 44909U 19096E   25088.23784776  .00000021  00000-0  32492-4 0  9995
2 44909  82.5163 275.3524 0218487 104.6892 257.8536 12.79739716245437
UPMSat 2
1 46276U 20061E   25088.24972366  .00072175  00000-0  94079-3 0  9990
2 46276  97.2526 160.7124 0001860 154.8897 205.2450 15.58482512254163
SALSAT
1 46495U 20068K   25088.36781437  .00015082  00000-0  67698-3 0  9991
2 46495  97.8549  63.1593 0013751  59.1080 301.1504 15.21202806247542
CubeSX-Sirius-HSE
1 47951U 21022V   25088.88392768  .00139564  00000-0  14738-2 0  9990
2 47951  97.4263 357.9800 0008304 159.3829 200.7766 15.63713810222530
CubeSX-HSE
1 47952U 21022W   25088.78454365  .00140626  00000-0  14536-2 0  9999
2 47952  97.4268 358.0930 0008457 154.7712 205.3962 15.64254582222537
GRBAlpha
1 47959U 21022AD  25088.81648117  .00131202  00000-0  13737-2 0  9992
2 47959  97.4254 358.2643 0008245 158.8152 201.3450 15.63959961221360
Orbicraft-Zorkiy
1 47960U 21022AE  25088.70643156  .00526139  10699-3  18129-2 0  9995
2 47960  97.4181   2.2575 0009514 144.8476 215.3426 15.89486414222270
TUBIN
1 48900U 21059X   25088.87386560  .00053208  00000-0  85505-3 0  9998
2 48900  97.6703 252.6890 0004050 156.4621 203.6817 15.52844433208883
LEDSAT
1 49069U 21073D   25088.84844514  .00060793  00000-0  10612-2 0  9999
2 49069  97.3949 167.9151 0010280 336.9365  23.1423 15.50435922200280
CUTE
1 49263U 21088D   25088.09903572  .00024448  00000-0  54439-3 0  9991
2 49263  97.4572 162.4033 0010191 142.8949 217.3005 15.43561260193237
TeikyoSat 4
1 49396U 21102B   25088.19795146  .00005162  00000-0  34631-3 0  9996
2 49396  97.4193 129.2218 0013169  28.3025 331.8916 15.07186984185645
Z-Sat
1 49399U 21102E   25088.84435305  .00007104  00000-0  39835-3 0  9998
2 49399  97.3896 132.5172 0017968 358.5177   1.5998 15.13539630186122
KOSEN 1
1 49402U 21102H   25088.70253991  .00011585  00000-0  55610-3 0  9994
2 49402  97.3800 135.2751 0015193 335.3921  24.6587 15.18917374186370
HO-113
1 50466U 21131B   25088.88219988  .00001412  00000-0  45592-3 0  9991
2 50466  98.5087 178.6015 0003916   8.0113 352.1138 14.40676155171124
IRIS-A
1 51044U 22002BN  25088.75857935  .00161709  00000-0  13677-2 0  9992
2 51044  97.3329 165.3732 0001570 132.3275 227.8120 15.69231788178527
Foresail-1
1 52766U 22057AL  25088.88012259  .00125412  00000-0  11486-2 0  9997
2 52766  97.6022 233.5370 0005697 208.4484 151.6466 15.67367124158571
SNUGLITE 2
1 52899U 22065F   25088.88696759  .00002720  00000-0  54056-3 0  9993
2 52899  98.1559 231.6153 0007017 346.2875  13.8135 14.62923154146002
IO-117
1 53106U 22080B   25051.21822557 -.00000003  00000-0  00000+0 0  9995
2 53106  70.1434 106.3440 0008542  48.0089 312.1297  6.42557744 61200
UmKA 1 (RS40S)
1 57172U 23091G   25088.87125257  .00008947  00000-0  49291-3 0  9993
2 57172  97.5670 144.6490 0014112 216.4592 143.5680 15.14160412 96629
CubeBel-2 (EU11S)
1 57175U 23091K   25088.87443368  .00013498  00000-0  67694-3 0  9996
2 57175  97.5670 145.4007 0012022 225.1409 134.8849 15.17397265 96673
VERONIKA
1 58261U 23174F   25088.80586713  .00089098  00000-0  14311-2 0  9996
2 58261  97.4188 171.6526 0006388 286.8735  73.1817 15.52698401 77487
KAFASAT
1 58317U 23174BP  25088.34047380  .01964705  31195-2  25837-2 0  9993
2 58317  97.3969 176.2947 0011888 261.9842  98.0091 16.07525180 77773
ENSO
1 58470U 23185J   25088.86498494  .00053702  00000-0  10541-2 0  9998
2 58470  97.3804 162.1127 0006587 336.6021  23.4928 15.47135112 73912
EIRSAT-1
1 58472U 23185L   25088.88079218  .00078848  00000-0  12546-2 0  9996
2 58472  97.3782 163.1161 0005370 331.2971  28.7986 15.53007052 73989
SONATE-2
1 59112U 24043Q   25088.29977408  .00030609  00000-0  97388-3 0  9996
2 59112  97.5022 218.2349 0011169  14.0818 346.0732 15.32480810 59252
MO-122
1 60209U 24125G   25088.32815787  .00030829  00000-0  96710-3 0  9993
2 60209  97.2889 300.8689 0020877  39.9619 320.3155 15.32774102 40877
GRBBeta
1 60237U 24128C   25088.84888733  .00007393  00000-0  56827-3 0  9990
2 60237  61.9937 329.5125 0045032  42.1204 318.3332 15.01741899 39425
Curium One
1 60242U 24128H   25088.85788434  .00012668  00000-0  91513-3 0  9996
2 60242  61.9839 328.7161 0044861  37.6312 322.7904 15.03605384 39447
ROBUSTA-3A
1 60243U 24128J   25088.37449665  .00014336  00000-0  10454-2 0  9992
2 60243  61.9907 331.0068 0043324  35.3350 325.0598 15.03223881 39361
CatSat
1 60246U 24125J   25088.13821666  .00016588  00000-0  58280-3 0  9992
2 60246  97.2670 300.6548 0043832 354.2601   5.8131 15.28520727 38916
HYPERVIEW-1G (RS66S)
1 61772U 24199AP  25088.84808244  .00031146  00000-0  10137-2 0  9998
2 61772  97.3652 317.9865 0016421  90.6097 269.7026 15.31675524 65968
AO-123
1 61781U 24199AY  25088.86136400  .00011165  00000-0  42200-3 0  9994
2 61781  97.3660 317.5293 0018023  92.1431 268.1872 15.26992351 65930
ZIMSAT 2
1 61783U 24199BA  25088.89286012  .00040728  00000-0  12117-2 0  9994
2 61783  97.3643 318.2222 0017161  89.3306 270.9904 15.34467193 69137
POEM 4 (BGS ARPIT)
1 62461U 24253C   25086.82626850  .00955855  55767-3  88982-3 0  9991
2 62461  55.2147 196.7780 0004274 318.3676 185.3071 16.11734897 13808
HADES-R (SO-124)
1 62690U 25009CK  25088.75605378  .00052202  00000-0  22270-2 0  9999
2 62690  97.4137 170.1423 0001783 319.3700  40.7403 15.22728086 11197
HYDRA-T
1 62692U 25009CM  25088.88231056  .00044018  00000-0  18715-2 0  9998
2 62692  97.4137 170.2779 0001609 309.7445  50.3649 15.22889486 11214
Fram2Ham
1 90000U 25090A   25091.17708220 -.00012090  00000-0 -25444-3 0    64
2 90000  90.0015 318.6050 0001128  47.8434 312.3114 15.45593922    34
